| time (UTC) | temp C | wind direction | speed KPH | gust KPH | rain 1hr cm | rain 24hr cm | rain mn cm | humidity % | barometer mb |
| 20260503072632 | 25 | 336 | 3.2 | 8.0 | 0.00 | 0.00 | 0.00 | 80 | 1013.2 |
| 20260503072128 | 25 | 293 | 4.8 | 8.0 | 0.00 | 0.00 | 0.00 | 79 | 1013.5 |
| 20260503071707 | 25 | 294 | 1.6 | 8.0 | 0.00 | 0.00 | 0.00 | 79 | 1013.8 |
| 20260503071144 | 25 | 299 | 4.8 | 16.1 | 0.00 | 0.00 | 0.00 | 79 | 1013.7 |
| 20260503070721 | 25 | 264 | 8.0 | 16.1 | 0.00 | 0.00 | 0.00 | 79 | 1013.5 |
| 20260503070136 | 25 | 311 | 6.4 | 9.7 | 0.00 | 0.00 | 0.00 | 80 | 1013.7 |
| 20260503060131 | 25 | 249 | 1.6 | 8.0 | 0.00 | 0.00 | 0.00 | 81 | 1013.0 |
| 20260503054714 | 25 | 227 | 1.6 | 8.0 | 0.00 | 0.00 | 0.00 | 80 | 1013.2 |
| 20260503054632 | 25 | 227 | 1.6 | 8.0 | 0.00 | 0.00 | 0.00 | 80 | 1013.2 |
| 20260503054229 | 25 | 225 | 1.6 | 8.0 | 0.00 | 0.00 | 0.00 | 80 | 1013.1 |
| 20260503053645 | 25 | 217 | 1.6 | 6.4 | 0.00 | 0.00 | 0.00 | 79 | 1013.2 |
| 20260503053140 | 25 | 222 | 3.2 | 8.0 | 0.00 | 0.00 | 0.00 | 79 | 1013.4 |
| 20260503052657 | 25 | 250 | 1.6 | 12.9 | 0.00 | 0.00 | 0.00 | 79 | 1013.6 |
| 20260503052235 | 25 | 242 | 1.6 | 12.9 | 0.00 | 0.00 | 0.00 | 79 | 1013.7 |
| 20260503051729 | 25 | 240 | 4.8 | 9.7 | 0.00 | 0.00 | 0.00 | 79 | 1013.8 |
| 20260503051647 | 25 | 240 | 4.8 | 9.7 | 0.00 | 0.00 | 0.00 | 79 | 1013.8 |
| 20260503051143 | 25 | 248 | 1.6 | 11.3 | 0.00 | 0.00 | 0.00 | 79 | 1013.8 |
| 20260503050701 | 26 | 245 | 3.2 | 12.9 | 0.00 | 0.00 | 0.00 | 79 | 1014.0 |
| 20260503050139 | 26 | 244 | 4.8 | 12.9 | 0.00 | 0.00 | 0.00 | 78 | 1014.1 |
| 20260503045647 | 26 | 242 | 3.2 | 8.0 | 0.00 | 0.00 | 0.00 | 78 | 1014.0 |
| 20260503045206 | 26 | 232 | 1.6 | 8.0 | 0.00 | 0.00 | 0.00 | 78 | 1014.0 |
| 20260503044701 | 26 | 249 | 4.8 | 12.9 | 0.00 | 0.00 | 0.00 | 78 | 1014.2 |
| 20260503044158 | 26 | 260 | 4.8 | 12.9 | 0.00 | 0.00 | 0.00 | 77 | 1014.3 |
| 20260503043636 | 26 | 246 | 4.8 | 9.7 | 0.00 | 0.00 | 0.00 | 77 | 1014.2 |
| 20260503043249 | 26 | 277 | 3.2 | 9.7 | 0.00 | 0.00 | 0.00 | 77 | 1014.4 |
| 20260503042642 | 26 | 263 | 4.8 | 11.3 | 0.00 | 0.00 | 0.00 | 77 | 1014.2 |
| 20260503042219 | 26 | 254 | 3.2 | 11.3 | 0.00 | 0.00 | 0.00 | 77 | 1014.1 |
| 20260503041655 | 26 | 257 | 1.6 | 11.3 | 0.00 | 0.00 | 0.00 | 77 | 1014.1 |
| 20260503041151 | 26 | 250 | 3.2 | 6.4 | 0.00 | 0.00 | 0.00 | 77 | 1014.2 |
| 20260503040728 | 26 | 250 | 3.2 | 6.4 | 0.00 | 0.00 | 0.00 | 77 | 1014.1 |
| 20260503040646 | 26 | 250 | 3.2 | 6.4 | 0.00 | 0.00 | 0.00 | 77 | 1014.1 |
| 20260503040245 | 26 | 250 | 3.2 | 6.4 | 0.00 | 0.00 | 0.00 | 77 | 1014.3 |
| 20260503035631 | 26 | 250 | 1.6 | 9.7 | 0.00 | 0.00 | 0.00 | 77 | 1014.3 |
| 20260503035230 | 26 | 250 | 4.8 | 9.7 | 0.00 | 0.00 | 0.00 | 77 | 1014.5 |
| 20260503035147 | 26 | 250 | 4.8 | 9.7 | 0.00 | 0.00 | 0.00 | 77 | 1014.5 |
| 20260503034724 | 26 | 269 | 0.0 | 3.2 | 0.00 | 0.00 | 0.00 | 77 | 1014.3 |
| 20260503034220 | 26 | 269 | 0.0 | 4.8 | 0.00 | 0.00 | 0.00 | 76 | 1014.0 |
| 20260503033715 | 26 | 269 | 0.0 | 4.8 | 0.00 | 0.00 | 0.00 | 76 | 1013.9 |
| 20260503033129 | 26 | 269 | 0.0 | 3.2 | 0.00 | 0.00 | 0.00 | 76 | 1013.8 |
| 20260503032747 | 26 | 269 | 1.6 | 3.2 | 0.00 | 0.00 | 0.00 | 76 | 1014.0 |
| 20260503032218 | 26 | 269 | 1.6 | 6.4 | 0.00 | 0.00 | 0.00 | 76 | 1013.9 |
| 20260503031638 | 26 | 269 | 0.0 | 6.4 | 0.00 | 0.00 | 0.00 | 76 | 1013.9 |
| 20260503031137 | 26 | 269 | 0.0 | 6.4 | 0.00 | 0.00 | 0.00 | 76 | 1013.8 |
| 20260503030715 | 26 | 269 | 1.6 | 6.4 | 0.00 | 0.00 | 0.00 | 76 | 1013.9 |
| 20260503030633 | 26 | 269 | 1.6 | 6.4 | 0.00 | 0.00 | 0.00 | 76 | 1013.9 |
| 20260503030132 | 26 | 269 | 4.8 | 6.4 | 0.00 | 0.00 | 0.00 | 75 | 1013.9 |
| 20260503025642 | 26 | 270 | 0.0 | 4.8 | 0.00 | 0.00 | 0.00 | 75 | 1013.8 |
| 20260503025139 | 27 | 268 | 1.6 | 4.8 | 0.00 | 0.00 | 0.00 | 75 | 1013.9 |
| 20260503024636 | 27 | 269 | 1.6 | 9.7 | 0.00 | 0.00 | 0.00 | 74 | 1013.9 |
| 20260503024133 | 27 | 290 | 3.2 | 8.0 | 0.00 | 0.00 | 0.00 | 74 | 1013.8 |
| 20260503023710 | 27 | 246 | 3.2 | 11.3 | 0.00 | 0.00 | 0.00 | 73 | 1013.9 |
| 20260503023628 | 27 | 246 | 3.2 | 11.3 | 0.00 | 0.00 | 0.00 | 73 | 1013.9 |
| 20260503023205 | 27 | 261 | 4.8 | 11.3 | 0.00 | 0.00 | 0.00 | 73 | 1013.9 |
| 20260503022721 | 27 | 270 | 4.8 | 12.9 | 0.00 | 0.00 | 0.00 | 72 | 1014.0 |
| 20260503022135 | 27 | 248 | 4.8 | 12.9 | 0.00 | 0.00 | 0.00 | 72 | 1014.0 |
| 20260503021632 | 27 | 273 | 4.8 | 12.9 | 0.00 | 0.00 | 0.00 | 71 | 1014.0 |
| 20260503021131 | 28 | 288 | 3.2 | 19.3 | 0.00 | 0.00 | 0.00 | 70 | 1013.8 |
| 20260503020628 | 28 | 262 | 6.4 | 19.3 | 0.00 | 0.00 | 0.00 | 69 | 1013.7 |
| 20260503020227 | 28 | 262 | 6.4 | 22.5 | 0.00 | 0.00 | 0.00 | 69 | 1013.7 |
| 20260503015655 | 28 | 248 | 6.4 | 22.5 | 0.00 | 0.00 | 0.00 | 68 | 1013.7 |
| 20260503015211 | 28 | 265 | 9.7 | 17.7 | 0.00 | 0.00 | 0.00 | 68 | 1013.6 |
| 20260503014724 | 28 | 229 | 6.4 | 20.9 | 0.00 | 0.00 | 0.00 | 67 | 1013.5 |
| 20260503014221 | 28 | 262 | 9.7 | 20.9 | 0.00 | 0.00 | 0.00 | 66 | 1013.4 |
| 20260503013735 | 28 | 249 | 9.7 | 17.7 | 0.00 | 0.00 | 0.00 | 66 | 1013.4 |
| 20260503013128 | 29 | 258 | 6.4 | 17.7 | 0.00 | 0.00 | 0.00 | 65 | 1013.2 |
| 20260503012705 | 29 | 269 | 6.4 | 17.7 | 0.00 | 0.00 | 0.00 | 64 | 1013.3 |
| 20260503012221 | 29 | 293 | 6.4 | 16.1 | 0.00 | 0.00 | 0.00 | 64 | 1013.2 |
| 20260503011715 | 29 | 258 | 6.4 | 17.7 | 0.00 | 0.00 | 0.00 | 63 | 1013.1 |
| 20260503011232 | 29 | 253 | 12.9 | 17.7 | 0.00 | 0.00 | 0.00 | 62 | 1013.0 |
| 20260503010707 | 30 | 263 | 6.4 | 19.3 | 0.00 | 0.00 | 0.00 | 62 | 1012.9 |
| 20260503010204 | 30 | 261 | 8.0 | 25.7 | 0.00 | 0.00 | 0.00 | 61 | 1012.9 |
| 20260503005711 | 30 | 274 | 9.7 | 19.3 | 0.00 | 0.00 | 0.00 | 60 | 1012.8 |
| 20260503005247 | 30 | 296 | 6.4 | 17.7 | 0.00 | 0.00 | 0.00 | 59 | 1012.6 |
| 20260503004718 | 30 | 259 | 6.4 | 17.7 | 0.00 | 0.00 | 0.00 | 59 | 1012.6 |
| 20260503004213 | 30 | 257 | 4.8 | 19.3 | 0.00 | 0.00 | 0.00 | 58 | 1012.6 |
| 20260503003750 | 30 | 268 | 9.7 | 20.9 | 0.00 | 0.00 | 0.00 | 57 | 1012.5 |
| 20260503003143 | 30 | 266 | 9.7 | 22.5 | 0.00 | 0.00 | 0.00 | 56 | 1012.6 |
| 20260503002740 | 30 | 246 | 9.7 | 20.9 | 0.00 | 0.00 | 0.00 | 55 | 1012.5 |
| 20260503002636 | 30 | 246 | 9.7 | 20.9 | 0.00 | 0.00 | 0.00 | 55 | 1012.5 |
| 20260503002234 | 31 | 263 | 9.7 | 20.9 | 0.00 | 0.00 | 0.00 | 54 | 1012.4 |
| 20260503002131 | 31 | 263 | 9.7 | 20.9 | 0.00 | 0.00 | 0.00 | 54 | 1012.4 |
| 20260503001646 | 31 | 256 | 11.3 | 20.9 | 0.00 | 0.00 | 0.00 | 54 | 1012.3 |
| 20260503001142 | 31 | 244 | 4.8 | 19.3 | 0.00 | 0.00 | 0.00 | 53 | 1012.4 |
| 20260503000638 | 31 | 261 | 6.4 | 19.3 | 0.00 | 0.00 | 0.00 | 52 | 1012.1 |
| 20260503000156 | 31 | 259 | 8.0 | 25.7 | 0.00 | 0.00 | 0.00 | 52 | 1012.1 |
| 20260502235743 | 31 | 250 | 8.0 | 25.7 | 0.00 | 0.00 | 0.00 | 51 | 1012.0 |
| 20260502235639 | 31 | 250 | 8.0 | 25.7 | 0.00 | 0.00 | 0.00 | 51 | 1012.0 |
| 20260502235137 | 31 | 243 | 8.0 | 19.3 | 0.00 | 0.00 | 0.00 | 50 | 1012.1 |
| 20260502234633 | 31 | 259 | 6.4 | 20.9 | 0.00 | 0.00 | 0.00 | 50 | 1011.9 |
| 20260502234130 | 32 | 250 | 8.0 | 20.9 | 0.00 | 0.00 | 0.00 | 49 | 1011.9 |
| 20260502233728 | 32 | 285 | 3.2 | 14.5 | 0.00 | 0.00 | 0.00 | 50 | 1011.7 |
| 20260502233145 | 32 | 263 | 8.0 | 14.5 | 0.00 | 0.00 | 0.00 | 49 | 1011.7 |
| 20260502232743 | 32 | 266 | 4.8 | 14.5 | 0.00 | 0.00 | 0.00 | 49 | 1011.7 |
| 20260502232700 | 32 | 266 | 4.8 | 14.5 | 0.00 | 0.00 | 0.00 | 49 | 1011.7 |
| 20260502232138 | 32 | 267 | 4.8 | 19.3 | 0.00 | 0.00 | 0.00 | 48 | 1011.5 |
| 20260502231735 | 32 | 248 | 8.0 | 19.3 | 0.00 | 0.00 | 0.00 | 48 | 1011.4 |
| 20260502231653 | 32 | 248 | 8.0 | 19.3 | 0.00 | 0.00 | 0.00 | 48 | 1011.4 |
| 20260502231150 | 32 | 274 | 8.0 | 20.9 | 0.00 | 0.00 | 0.00 | 47 | 1011.4 |
| 20260502230646 | 32 | 254 | 8.0 | 17.7 | 0.00 | 0.00 | 0.00 | 48 | 1011.3 |
| 20260502230239 | 32 | 246 | 8.0 | 16.1 | 0.00 | 0.00 | 0.00 | 48 | 1011.3 |
| 20260502230157 | 32 | 246 | 8.0 | 16.1 | 0.00 | 0.00 | 0.00 | 48 | 1011.3 |
| 20260502225641 | 32 | 267 | 4.8 | 16.1 | 0.00 | 0.00 | 0.00 | 48 | 1011.0 |
| 20260502225154 | 32 | 236 | 6.4 | 16.1 | 0.00 | 0.00 | 0.00 | 47 | 1011.0 |
| 20260502224749 | 32 | 276 | 6.4 | 14.5 | 0.00 | 0.00 | 0.00 | 48 | 1011.1 |
| 20260502224203 | 32 | 269 | 4.8 | 17.7 | 0.00 | 0.00 | 0.00 | 48 | 1011.0 |
| 20260502223639 | 32 | 248 | 6.4 | 17.7 | 0.00 | 0.00 | 0.00 | 48 | 1010.9 |
| 20260502223136 | 32 | 262 | 6.4 | 25.7 | 0.00 | 0.00 | 0.00 | 47 | 1010.9 |
| 20260502222631 | 32 | 263 | 11.3 | 25.7 | 0.00 | 0.00 | 0.00 | 47 | 1010.9 |
| 20260502222227 | 32 | 230 | 11.3 | 19.3 | 0.00 | 0.00 | 0.00 | 47 | 1010.9 |
| 20260502222145 | 32 | 230 | 11.3 | 19.3 | 0.00 | 0.00 | 0.00 | 47 | 1010.9 |
| 20260502221642 | 33 | 253 | 9.7 | 19.3 | 0.00 | 0.00 | 0.00 | 46 | 1010.8 |
| 20260502221220 | 33 | 253 | 9.7 | 22.5 | 0.00 | 0.00 | 0.00 | 47 | 1010.9 |
| 20260502220635 | 33 | 259 | 8.0 | 22.5 | 0.00 | 0.00 | 0.00 | 46 | 1010.8 |
| 20260502220212 | 33 | 257 | 12.9 | 19.3 | 0.00 | 0.00 | 0.00 | 45 | 1010.8 |
| 20260502215719 | 33 | 272 | 11.3 | 24.1 | 0.00 | 0.00 | 0.00 | 45 | 1010.8 |
| 20260502215135 | 33 | 278 | 12.9 | 22.5 | 0.00 | 0.00 | 0.00 | 45 | 1010.7 |
| 20260502214711 | 33 | 246 | 9.7 | 30.6 | 0.00 | 0.00 | 0.00 | 45 | 1010.6 |
| 20260502214145 | 33 | 259 | 12.9 | 30.6 | 0.00 | 0.00 | 0.00 | 45 | 1010.7 |
| 20260502213701 | 33 | 251 | 11.3 | 25.7 | 0.00 | 0.00 | 0.00 | 45 | 1010.6 |
| 20260502213138 | 33 | 255 | 8.0 | 25.7 | 0.00 | 0.00 | 0.00 | 45 | 1010.7 |
| 20260502212637 | 33 | 259 | 14.5 | 25.7 | 0.00 | 0.00 | 0.00 | 45 | 1010.7 |
| 20260502212153 | 33 | 298 | 11.3 | 20.9 | 0.00 | 0.00 | 0.00 | 45 | 1010.7 |
| 20260502211629 | 33 | 254 | 9.7 | 27.4 | 0.00 | 0.00 | 0.00 | 45 | 1010.5 |
| 20260502211145 | 33 | 280 | 17.7 | 27.4 | 0.00 | 0.00 | 0.00 | 43 | 1010.8 |
| 20260502210721 | 33 | 246 | 9.7 | 20.9 | 0.00 | 0.00 | 0.00 | 44 | 1010.6 |
| 20260502210135 | 33 | 265 | 9.7 | 32.2 | 0.00 | 0.00 | 0.00 | 44 | 1010.4 |
| 20260502205643 | 33 | 218 | 16.1 | 32.2 | 0.00 | 0.00 | 0.00 | 43 | 1010.5 |
| 20260502205239 | 33 | 238 | 16.1 | 27.4 | 0.00 | 0.00 | 0.00 | 45 | 1010.4 |
| 20260502205157 | 33 | 238 | 16.1 | 27.4 | 0.00 | 0.00 | 0.00 | 45 | 1010.4 |
| 20260502204732 | 33 | 259 | 12.9 | 32.2 | 0.00 | 0.00 | 0.00 | 45 | 1010.5 |
| 20260502204222 | 33 | 314 | 17.7 | 29.0 | 0.00 | 0.00 | 0.00 | 43 | 1010.6 |
| 20260502203657 | 34 | 249 | 14.5 | 22.5 | 0.00 | 0.00 | 0.00 | 45 | 1010.4 |
| 20260502203154 | 33 | 242 | 12.9 | 29.0 | 0.00 | 0.00 | 0.00 | 46 | 1010.6 |
| 20260502202731 | 34 | 292 | 12.9 | 29.0 | 0.00 | 0.00 | 0.00 | 45 | 1010.6 |
| 20260502202649 | 34 | 292 | 12.9 | 29.0 | 0.00 | 0.00 | 0.00 | 45 | 1010.6 |
| 20260502202226 | 33 | 261 | 12.9 | 29.0 | 0.00 | 0.00 | 0.00 | 45 | 1010.6 |
| 20260502201642 | 34 | 223 | 14.5 | 25.7 | 0.00 | 0.00 | 0.00 | 45 | 1010.5 |
| 20260502201157 | 34 | 255 | 11.3 | 25.7 | 0.00 | 0.00 | 0.00 | 47 | 1010.6 |
| 20260502200632 | 33 | 241 | 12.9 | 33.8 | 0.00 | 0.00 | 0.00 | 47 | 1010.7 |
| 20260502200209 | 33 | 259 | 14.5 | 33.8 | 0.00 | 0.00 | 0.00 | 46 | 1010.7 |
| 20260502195735 | 33 | 302 | 9.7 | 29.0 | 0.00 | 0.00 | 0.00 | 47 | 1010.6 |
| 20260502195631 | 33 | 302 | 9.7 | 29.0 | 0.00 | 0.00 | 0.00 | 47 | 1010.6 |
| 20260502195128 | 33 | 263 | 9.7 | 33.8 | 0.00 | 0.00 | 0.00 | 47 | 1010.8 |
| 20260502194705 | 33 | 261 | 12.9 | 29.0 | 0.00 | 0.00 | 0.00 | 48 | 1010.9 |
| 20260502194222 | 33 | 269 | 16.1 | 29.0 | 0.00 | 0.00 | 0.00 | 47 | 1010.9 |
| 20260502193655 | 33 | 229 | 17.7 | 29.0 | 0.00 | 0.00 | 0.00 | 48 | 1010.8 |
| 20260502193151 | 33 | 250 | 16.1 | 38.6 | 0.00 | 0.00 | 0.00 | 49 | 1010.9 |
| 20260502192708 | 33 | 219 | 19.3 | 38.6 | 0.00 | 0.00 | 0.00 | 48 | 1010.9 |
| 20260502192204 | 33 | 240 | 16.1 | 30.6 | 0.00 | 0.00 | 0.00 | 47 | 1010.8 |
| 20260502191641 | 33 | 242 | 12.9 | 29.0 | 0.00 | 0.00 | 0.00 | 47 | 1010.9 |
| 20260502191140 | 33 | 242 | 16.1 | 33.8 | 0.00 | 0.00 | 0.00 | 48 | 1010.9 |
| 20260502190737 | 33 | 200 | 19.3 | 33.8 | 0.00 | 0.00 | 0.00 | 48 | 1010.8 |
| 20260502190133 | 33 | 247 | 14.5 | 30.6 | 0.00 | 0.00 | 0.00 | 50 | 1010.9 |
| 20260502185722 | 33 | 262 | 12.9 | 30.6 | 0.00 | 0.00 | 0.00 | 52 | 1010.8 |
| 20260502185640 | 33 | 262 | 12.9 | 30.6 | 0.00 | 0.00 | 0.00 | 52 | 1010.8 |
| 20260502185137 | 33 | 272 | 14.5 | 30.6 | 0.00 | 0.00 | 0.00 | 51 | 1010.9 |
| 20260502184734 | 33 | 205 | 14.5 | 30.6 | 0.00 | 0.00 | 0.00 | 52 | 1011.0 |
| 20260502184245 | 33 | 268 | 12.9 | 27.4 | 0.00 | 0.00 | 0.00 | 51 | 1011.0 |
| 20260502183638 | 33 | 238 | 16.1 | 29.0 | 0.00 | 0.00 | 0.00 | 51 | 1011.1 |
| 20260502183135 | 33 | 250 | 14.5 | 29.0 | 0.00 | 0.00 | 0.00 | 53 | 1011.0 |
| 20260502182638 | 33 | 253 | 11.3 | 24.1 | 0.00 | 0.00 | 0.00 | 55 | 1011.1 |
| 20260502182232 | 32 | 260 | 8.0 | 19.3 | 0.00 | 0.00 | 0.00 | 59 | 1011.1 |
| 20260502182129 | 32 | 260 | 8.0 | 19.3 | 0.00 | 0.00 | 0.00 | 59 | 1011.1 |
| 20260502181745 | 32 | 234 | 9.7 | 17.7 | 0.00 | 0.00 | 0.00 | 64 | 1011.3 |
| 20260502181239 | 31 | 161 | 3.2 | 17.7 | 0.00 | 0.00 | 0.00 | 73 | 1011.3 |
| 20260502180731 | 31 | 162 | 6.4 | 20.9 | 0.00 | 0.00 | 0.00 | 69 | 1011.4 |
| 20260502180224 | 31 | 117 | 12.9 | 20.9 | 0.00 | 0.00 | 0.00 | 76 | 1011.4 |
| 20260502170220 | 30 | 134 | 11.3 | 24.1 | 0.00 | 0.00 | 0.00 | 75 | 1012.0 |
| 20260502164206 | 30 | 162 | 12.9 | 19.3 | 0.00 | 0.00 | 0.00 | 77 | 1012.0 |
| 20260502163704 | 30 | 153 | 9.7 | 22.5 | 0.00 | 0.00 | 0.00 | 78 | 1011.9 |
| 20260502163140 | 30 | 161 | 11.3 | 25.7 | 0.00 | 0.00 | 0.00 | 76 | 1012.1 |
| 20260502162637 | 30 | 163 | 12.9 | 24.1 | 0.00 | 0.00 | 0.00 | 76 | 1012.1 |
| 20260502162135 | 30 | 134 | 8.0 | 24.1 | 0.00 | 0.00 | 0.00 | 77 | 1012.2 |
| 20260502161653 | 30 | 128 | 9.7 | 25.7 | 0.00 | 0.00 | 0.00 | 77 | 1012.1 |
| 20260502161228 | 30 | 108 | 12.9 | 25.7 | 0.00 | 0.00 | 0.00 | 77 | 1012.2 |
| 20260502161146 | 30 | 108 | 12.9 | 25.7 | 0.00 | 0.00 | 0.00 | 77 | 1012.2 |
| 20260502160702 | 30 | 146 | 14.5 | 27.4 | 0.00 | 0.00 | 0.00 | 76 | 1012.2 |
| 20260502160219 | 30 | 129 | 14.5 | 25.7 | 0.00 | 0.00 | 0.00 | 76 | 1012.3 |
| 20260502152144 | 31 | 221 | 3.2 | 16.1 | 0.00 | 0.00 | 0.00 | 73 | 1012.6 |
| 20260502151719 | 30 | 196 | 4.8 | 16.1 | 0.00 | 0.00 | 0.00 | 67 | 1012.5 |
| 20260502151213 | 30 | 126 | 4.8 | 20.9 | 0.00 | 0.00 | 0.00 | 73 | 1012.6 |
| 20260502150707 | 30 | 182 | 9.7 | 20.9 | 0.00 | 0.00 | 0.00 | 68 | 1012.5 |
| 20260502150143 | 30 | 182 | 9.7 | 17.7 | 0.00 | 0.00 | 0.00 | 75 | 1012.5 |
| 20260502130643 | 27 | 200 | 4.8 | 11.3 | 0.00 | 0.00 | 0.00 | 83 | 1012.2 |
| 20260502130142 | 27 | 148 | 4.8 | 11.3 | 0.00 | 0.00 | 0.00 | 83 | 1012.3 |
| 20260502123657 | 26 | 136 | 4.8 | 9.7 | 0.00 | 0.00 | 0.00 | 86 | 1012.3 |
| 20260502123131 | 26 | 169 | 4.8 | 9.7 | 0.00 | 0.00 | 0.00 | 86 | 1012.3 |
| 20260502122707 | 26 | 202 | 1.6 | 9.7 | 0.00 | 0.00 | 0.00 | 87 | 1012.3 |
| 20260502122203 | 26 | 157 | 3.2 | 9.7 | 0.00 | 0.00 | 0.00 | 87 | 1012.3 |
| 20260502121639 | 25 | 169 | 3.2 | 8.0 | 0.00 | 0.00 | 0.00 | 88 | 1012.3 |
| 20260502121136 | 25 | 167 | 4.8 | 8.0 | 0.00 | 0.00 | 0.00 | 88 | 1012.2 |
| 20260502120734 | 25 | 246 | 1.6 | 6.4 | 0.00 | 0.00 | 0.00 | 89 | 1012.3 |
| 20260502120651 | 25 | 246 | 1.6 | 6.4 | 0.00 | 0.00 | 0.00 | 89 | 1012.3 |
| 20260502120129 | 25 | 252 | 0.0 | 0.0 | 0.00 | 0.00 | 0.00 | 89 | 1012.4 |
| 20260502115638 | 24 | 252 | 0.0 | 0.0 | 0.00 | 0.00 | 0.00 | 90 | 1012.4 |
| 20260502115156 | 24 | 252 | 0.0 | 0.0 | 0.00 | 0.00 | 0.00 | 90 | 1012.4 |
| 20260502114633 | 23 | 252 | 0.0 | 0.0 | 0.00 | 0.00 | 0.00 | 90 | 1012.5 |
| 20260502114131 | 23 | 252 | 0.0 | 0.0 | 0.00 | 0.00 | 0.00 | 90 | 1012.4 |
| 20260502113649 | 23 | 252 | 0.0 | 0.0 | 0.00 | 0.00 | 0.00 | 91 | 1012.3 |
| 20260502113206 | 23 | 252 | 0.0 | 0.0 | 0.00 | 0.00 | 0.00 | 91 | 1012.4 |
| 20260502112643 | 23 | 252 | 0.0 | 0.0 | 0.00 | 0.00 | 0.00 | 91 | 1012.5 |
| 20260502112221 | 23 | 252 | 0.0 | 0.0 | 0.00 | 0.00 | 0.00 | 91 | 1012.4 |
| 20260502111657 | 23 | 252 | 0.0 | 0.0 | 0.00 | 0.00 | 0.00 | 91 | 1012.5 |
| 20260502111134 | 23 | 252 | 0.0 | 0.0 | 0.00 | 0.00 | 0.00 | 91 | 1012.5 |
| 20260502110651 | 23 | 252 | 0.0 | 0.0 | 0.00 | 0.00 | 0.00 | 91 | 1012.5 |
| 20260502110249 | 23 | 252 | 0.0 | 0.0 | 0.00 | 0.00 | 0.00 | 91 | 1012.5 |
| 20260502110146 | 23 | 252 | 0.0 | 0.0 | 0.00 | 0.00 | 0.00 | 91 | 1012.5 |
| 20260502105636 | 22 | 252 | 0.0 | 0.0 | 0.00 | 0.00 | 0.00 | 91 | 1012.5 |
| 20260502105154 | 22 | 252 | 0.0 | 0.0 | 0.00 | 0.00 | 0.00 | 91 | 1012.5 |
| 20260502104631 | 22 | 252 | 0.0 | 0.0 | 0.00 | 0.00 | 0.00 | 91 | 1012.4 |
| 20260502104129 | 22 | 252 | 0.0 | 0.0 | 0.00 | 0.00 | 0.00 | 91 | 1012.2 |
| 20260502103726 | 22 | 252 | 0.0 | 0.0 | 0.00 | 0.00 | 0.00 | 91 | 1012.1 |
| 20260502103201 | 22 | 252 | 0.0 | 0.0 | 0.00 | 0.00 | 0.00 | 91 | 1012.1 |
| 20260502102638 | 22 | 252 | 0.0 | 0.0 | 0.00 | 0.00 | 0.00 | 91 | 1012.2 |
| 20260502102135 | 22 | 252 | 0.0 | 0.0 | 0.00 | 0.00 | 0.00 | 91 | 1012.2 |
| 20260502101634 | 22 | 252 | 0.0 | 0.0 | 0.00 | 0.00 | 0.00 | 91 | 1012.3 |
| 20260502101152 | 22 | 252 | 0.0 | 0.0 | 0.00 | 0.00 | 0.00 | 91 | 1012.2 |
| 20260502100628 | 22 | 252 | 0.0 | 0.0 | 0.00 | 0.00 | 0.00 | 91 | 1012.2 |
| 20260502100207 | 22 | 252 | 0.0 | 0.0 | 0.00 | 0.00 | 0.00 | 91 | 1012.3 |
| 20260502091200 | 23 | 252 | 0.0 | 0.0 | 0.00 | 0.00 | 0.00 | 89 | 1012.4 |
| 20260502090635 | 23 | 252 | 0.0 | 0.0 | 0.00 | 0.00 | 0.00 | 89 | 1012.3 |
| 20260502090154 | 23 | 252 | 0.0 | 0.0 | 0.00 | 0.00 | 0.00 | 89 | 1012.3 |